Weather History for Cavalier, ND

Change the Weather History Date:

Wednesday, January 23, 2013

  Actual Average (KGAF) Record (KGAF)
Temperature  
Mean Temperature -10 °F -  
Max Temperature 1 °F 17 °F 40 °F (1981)
Min Temperature -20 °F 0 °F -30 °F (1966)
Degree Days  
Heating Degree Days 74    
Moisture  
Dew Point -18 °F    
Average Humidity 64    
Maximum Humidity 78    
Minimum Humidity 53    
Precipitation  
Precipitation 0.00 in - - ()
Sea Level Pressure  
Sea Level Pressure 30.45 in    
Wind  
Wind Speed 13 mph (NNW)    
Max Wind Speed 22 mph    
Max Gust Speed 31 mph    
Visibility 10 miles    
Events      
Averages and records for this station are not official NWS values.
T = Trace of Precipitation, MM = Missing Value Source: NWS Daily Summary

Daily Weather History Graph

Daily Weather History Graph

Search for Another Location

Airport:

Trip Planner

Search our weather history database for the weather conditions in past years. The results will help you decide how hot, cold, wet, or windy it might be!

Date:

Astronomy

Jan. 23, 2013 Rise Set
Actual Time 8:10 AM CST 5:14 PM CST
Civil Twilight 7:36 AM CST 5:49 PM CST
Nautical Twilight 6:57 AM CST 6:27 PM CST
Astronomical Twilight 6:20 AM CST 7:05 PM CST
Moon 2:21 PM CST (1/23) 5:27 AM CST (1/23)
Length of Visible Light 10h 13m
Length of Day
9h 03m
Waxing Gibbous, 89% of the Moon is Illuminated
Jan 23
Waxing Gibbous
Jan 26
Full
Feb 3
Last Quarter
Feb 10
New
Feb 17
First Quarter

Hourly Weather History & Observations

Time (CST) Temp. Windchill Dew Point Humidity Pressure Visibility Wind Dir Wind Speed Gust Speed Precip Events Conditions
12:15 AM -0.4 °F -15.7 °F -7.6 °F 72% 30.13 in 10.0 mi WSW 9.2 mph - N/A   Mostly Cloudy
12:35 AM -0.4 °F -13.4 °F -7.6 °F 72% 30.14 in 10.0 mi West 6.9 mph - N/A   Scattered Clouds
12:55 AM -0.4 °F -14.7 °F -7.6 °F 72% 30.13 in 10.0 mi West 8.1 mph - N/A   Clear
1:15 AM -0.4 °F -16.7 °F -9.4 °F 66% 30.13 in 10.0 mi West 10.4 mph - N/A   Clear
1:35 AM -0.4 °F -18.4 °F -7.6 °F 72% 30.13 in 10.0 mi WNW 12.7 mph - N/A   Clear
1:55 AM -0.4 °F -17.6 °F -7.6 °F 72% 30.14 in 10.0 mi WNW 11.5 mph - N/A   Clear
2:15 AM -0.4 °F -18.4 °F -5.8 °F 78% 30.14 in 10.0 mi NW 12.7 mph - N/A   Clear
2:35 AM 1.4 °F -17.6 °F -5.8 °F 72% 30.15 in 10.0 mi NW 15.0 mph - N/A   Clear
2:55 AM 1.4 °F -18.2 °F -7.6 °F 66% 30.16 in 10.0 mi NW 16.1 mph 20.7 mph N/A   Clear
3:15 AM 1.4 °F -18.2 °F -7.6 °F 66% 30.18 in 10.0 mi NNW 16.1 mph 20.7 mph N/A   Clear
3:35 AM -0.4 °F -20.5 °F -7.6 °F 72% 30.18 in 10.0 mi NNW 16.1 mph 20.7 mph N/A   Clear
3:55 AM -0.4 °F -21.2 °F -9.4 °F 66% 30.19 in 10.0 mi NNW 17.3 mph - N/A   Clear
4:15 AM -0.4 °F -19.2 °F -9.4 °F 66% 30.20 in 10.0 mi NNW 13.8 mph 19.6 mph N/A   Clear
4:35 AM -0.4 °F -18.4 °F -9.4 °F 66% 30.20 in 10.0 mi NNW 12.7 mph 20.7 mph N/A   Clear
4:55 AM -0.4 °F -20.5 °F -9.4 °F 66% 30.22 in 10.0 mi NNW 16.1 mph 23.0 mph N/A   Clear
5:15 AM -2.2 °F -22.2 °F -11.2 °F 66% 30.23 in 10.0 mi NNW 15.0 mph 23.0 mph N/A   Clear
5:35 AM -2.2 °F -24.1 °F -11.2 °F 66% 30.25 in 10.0 mi NNW 18.4 mph 23.0 mph N/A   Clear
5:55 AM -4.0 °F -25.8 °F -11.2 °F 71% 30.26 in 10.0 mi NNW 17.3 mph 24.2 mph N/A   Clear
6:15 AM -4.0 °F -24.5 °F -13.0 °F 65% 30.28 in 10.0 mi NNW 15.0 mph 20.7 mph N/A   Clear
6:35 AM -4.0 °F -23.7 °F -13.0 °F 65% 30.29 in 10.0 mi NNW 13.8 mph - N/A   Mostly Cloudy
6:55 AM -4.0 °F -24.5 °F -13.0 °F 65% 30.30 in 10.0 mi NNW 15.0 mph - N/A   Overcast
7:15 AM -5.8 °F -26.0 °F -13.0 °F 71% 30.31 in 10.0 mi NNW 13.8 mph - N/A   Overcast
7:35 AM -5.8 °F -28.2 °F -13.0 °F 71% 30.31 in 10.0 mi NNW 17.3 mph 24.2 mph N/A   Mostly Cloudy
7:55 AM -5.8 °F -26.8 °F -13.0 °F 71% 30.33 in 10.0 mi NNW 15.0 mph 20.7 mph N/A   Partly Cloudy
8:15 AM -7.6 °F -29.8 °F -14.8 °F 71% 30.34 in 10.0 mi NNW 16.1 mph 23.0 mph N/A   Clear
8:35 AM -7.6 °F -31.7 °F -14.8 °F 71% 30.35 in 10.0 mi NNW 19.6 mph 25.3 mph N/A   Clear
8:55 AM -7.6 °F -31.1 °F -16.6 °F 65% 30.37 in 10.0 mi NNW 18.4 mph 25.3 mph N/A   Clear
9:15 AM -7.6 °F -31.1 °F -16.6 °F 65% 30.39 in 10.0 mi NNW 18.4 mph 25.3 mph N/A   Clear
9:35 AM -7.6 °F -31.7 °F -16.6 °F 65% 30.40 in 10.0 mi NNW 19.6 mph 24.2 mph N/A   Clear
9:55 AM -7.6 °F -31.7 °F -16.6 °F 65% 30.42 in 10.0 mi North 19.6 mph 25.3 mph N/A   Clear
10:15 AM -7.6 °F -32.3 °F -16.6 °F 65% 30.44 in 10.0 mi North 20.7 mph 31.1 mph N/A   Clear
10:35 AM -7.6 °F -31.7 °F -16.6 °F 65% 30.46 in 10.0 mi North 19.6 mph 25.3 mph N/A   Clear
10:55 AM -7.6 °F -29.8 °F -16.6 °F 65% 30.47 in 10.0 mi North 16.1 mph 26.5 mph N/A   Partly Cloudy
11:15 AM -7.6 °F -32.3 °F -16.6 °F 65% 30.48 in 10.0 mi North 20.7 mph 26.5 mph N/A   Mostly Cloudy
11:35 AM -7.6 °F -30.5 °F -16.6 °F 65% 30.49 in 10.0 mi North 17.3 mph 25.3 mph N/A   Overcast
11:55 AM -9.4 °F -34.7 °F -18.4 °F 65% 30.50 in 8.0 mi North 20.7 mph 26.5 mph N/A   Overcast
12:15 PM -9.4 °F -32.8 °F -16.6 °F 71% 30.50 in 2.5 mi North 17.3 mph 23.0 mph N/A   Haze
12:35 PM -9.4 °F -33.5 °F -18.4 °F 65% 30.52 in 9.0 mi NNW 18.4 mph 25.3 mph N/A   Overcast
12:55 PM -9.4 °F -32.8 °F -20.2 °F 59% 30.52 in 10.0 mi North 17.3 mph 26.5 mph N/A   Partly Cloudy
1:15 PM -9.4 °F -34.7 °F -20.2 °F 59% 30.52 in 9.0 mi North 20.7 mph 26.5 mph N/A   Clear
1:35 PM -9.4 °F -34.7 °F -20.2 °F 59% 30.53 in 10.0 mi North 20.7 mph 27.6 mph N/A   Clear
1:55 PM -9.4 °F -34.1 °F -22.0 °F 54% 30.54 in 10.0 mi North 19.6 mph 25.3 mph N/A   Clear
2:15 PM -9.4 °F -35.2 °F -22.0 °F 54% 30.55 in 10.0 mi North 21.9 mph 26.5 mph N/A   Partly Cloudy
2:35 PM -9.4 °F -33.5 °F -22.0 °F 54% 30.56 in 10.0 mi North 18.4 mph 25.3 mph N/A   Clear
2:55 PM -11.2 °F -35.8 °F -22.0 °F 59% 30.57 in 10.0 mi North 18.4 mph 24.2 mph N/A   Clear
3:15 PM -11.2 °F -33.7 °F -22.0 °F 59% 30.59 in 10.0 mi North 15.0 mph 20.7 mph N/A   Clear
3:35 PM -11.2 °F -35.2 °F -22.0 °F 59% 30.59 in 10.0 mi North 17.3 mph 24.2 mph N/A   Clear
3:55 PM -11.2 °F -32.9 °F -23.8 °F 54% 30.60 in 10.0 mi North 13.8 mph - N/A   Clear
4:15 PM - - - N/A% 30.61 in 10.0 mi North 11.5 mph - N/A   Clear
4:35 PM -13.0 °F -33.4 °F -23.8 °F 59% 30.62 in 10.0 mi North 11.5 mph - N/A   Clear
4:55 PM -13.0 °F -32.4 °F -25.6 °F 53% 30.63 in 10.0 mi North 10.4 mph - N/A   Clear
5:15 PM -13.0 °F -31.3 °F -25.6 °F 53% 30.64 in 10.0 mi North 9.2 mph - N/A   Clear
5:35 PM -14.8 °F -33.5 °F -25.6 °F 58% 30.66 in 10.0 mi NNW 9.2 mph - N/A   Clear
5:55 PM -14.8 °F -30.8 °F -25.6 °F 58% 30.65 in 10.0 mi North 6.9 mph - N/A   Clear
6:15 PM -14.8 °F -32.2 °F -25.6 °F 58% 30.65 in 10.0 mi NNW 8.1 mph - N/A   Clear
6:35 PM -16.6 °F -32.9 °F -25.6 °F 64% 30.66 in 10.0 mi NNW 6.9 mph - N/A   Clear
6:55 PM -16.6 °F -31.3 °F -25.6 °F 64% 30.66 in 10.0 mi NNW 5.8 mph - N/A   Clear
7:15 PM -16.6 °F -31.3 °F -25.6 °F 64% 30.66 in 10.0 mi NNW 5.8 mph - N/A   Clear
7:35 PM -16.6 °F -31.3 °F -25.6 °F 64% 30.66 in 10.0 mi NNW 5.8 mph - N/A   Clear
7:55 PM -16.6 °F -31.3 °F -27.4 °F 58% 30.67 in 10.0 mi NNW 5.8 mph - N/A   Clear
8:15 PM -16.6 °F -31.3 °F -27.4 °F 58% 30.67 in 10.0 mi NNW 5.8 mph - N/A   Clear
8:35 PM -16.6 °F -31.3 °F -27.4 °F 58% 30.67 in 10.0 mi NNW 5.8 mph - N/A   Clear
8:55 PM -16.6 °F -31.3 °F -27.4 °F 58% 30.67 in 10.0 mi North 5.8 mph - N/A   Clear
9:15 PM -16.6 °F -29.3 °F -27.4 °F 58% 30.67 in 10.0 mi North 4.6 mph - N/A   Clear
9:35 PM -16.6 °F -29.3 °F -27.4 °F 58% 30.67 in 10.0 mi NNW 4.6 mph - N/A   Clear
9:55 PM -16.6 °F -29.3 °F -27.4 °F 58% 30.67 in 10.0 mi North 4.6 mph - N/A   Clear
10:15 PM -16.6 °F -26.8 °F -27.4 °F 58% 30.68 in 10.0 mi NNW 3.5 mph - N/A   Clear
10:35 PM -18.4 °F - -27.4 °F 63% 30.68 in 10.0 mi Calm Calm - N/A   Clear
10:55 PM -18.4 °F - -27.4 °F 63% 30.67 in 10.0 mi Calm Calm - N/A   Clear
11:15 PM -18.4 °F - -27.4 °F 63% 30.68 in 10.0 mi Calm Calm - N/A   Clear
11:35 PM -20.2 °F - -29.2 °F 63% 30.67 in 10.0 mi Calm Calm - N/A   Clear
11:55 PM -20.2 °F - -29.2 °F 63% 30.68 in 10.0 mi Calm Calm - N/A   Clear